Location: �quirre
(50.4736°N, 2.2351°E)
Time: 16:04:44
(UTC+00:00)

Meteor 1-12 Rocket - Pass Details

Date: 07 August 2020
Orbit: 854 x 927 km, 81.2° (Epoch: 19 September)

Event Time Altitude Azimuth Distance (km) Brightness Sun altitude
Exits shadow 01:11:24 41° 188° (S) 1,301 4.7 -21.2°
Maximum altitude 01:13:39 88° 100° (E) 927 4.3 -21.1°
Drops below altitude 10° 01:19:42 10° 13° (NNE) 2,638 7.9 -20.8°
Sets 01:22:12 0° 13° (NNE) 3,588 9.0 -20.6°
